Date String (YYYY-MM-DD hh:mm:ss) UTC,Instrument flags,Ambient pressure (hPa),Sample flow (lpm),Bypass flow (lpm),Sample temperature (°C),Ambient temperature (°C),ASC tube jacket temperature (°C),LED temperature (°C),Box temperature (°C),Sample RH (%),Span deviation,Mass concentration (μg/m³),Mass concentration (μg/m³),Mass concentration (μg/m³)
DateTimeUTC,F1_M11,P_M11,Q1_M11,Q2_M11,T1_M11,T2_M11,T3_M11,T4_M11,T5_M11,U1_M11,ZSPAN_M11,X0_M11,X2_M11,X1_M11
2021-09-09 01:00:00,,0830.8,5.01,0.00,29.0,26.7,00.0,38.1,30.6,20.0,0003.0,0052.90,0031.68,0028.82
2021-09-09 01:01:00,,0830.8,4.99,0.00,29.0,27.2,00.0,38.1,30.8,20.0,0002.9,0052.61,0031.67,0028.82
2021-09-09 01:02:00,,0830.8,5.01,0.00,29.0,27.5,00.0,38.1,30.9,19.9,0002.6,0052.70,0031.69,0028.82
2021-09-09 01:03:00,,0830.8,5.01,0.00,29.1,27.9,00.0,38.1,31.0,19.9,0002.4,0052.55,0031.69,0028.82
2021-09-09 01:04:00,,0830.8,4.99,0.00,29.2,28.1,00.0,38.1,31.1,19.8,0002.3,0052.25,0031.73,0028.86
2021-09-09 01:05:00,,0830.8,5.00,0.00,29.2,28.3,00.0,38.1,31.2,19.7,0002.4,0052.45,0031.75,0028.88
2021-09-09 01:06:00,,0830.8,5.00,0.00,29.3,28.5,00.0,38.2,31.2,19.6,0002.3,0050.98,0031.73,0028.85
2021-09-09 01:07:00,,0830.8,4.98,0.00,29.3,28.6,00.0,38.2,31.3,19.5,0002.1,0049.49,0031.62,0028.81
2021-09-09 01:08:00,,0830.8,5.01,0.00,29.3,27.2,00.0,38.2,30.9,19.5,0002.1,0050.15,0031.69,0028.83
2021-09-09 01:09:00,,0830.7,5.00,0.00,29.2,26.4,00.0,38.2,30.7,19.7,0002.4,0049.48,0031.65,0028.84
2021-09-09 01:10:00,,0830.7,5.01,0.00,29.2,26.7,00.0,38.2,30.8,19.7,0002.3,0049.53,0031.60,0028.85
2021-09-09 01:11:00,,0830.7,5.00,0.00,29.1,27.0,00.0,38.2,30.8,19.7,0002.1,0048.79,0031.60,0028.89
2021-09-09 01:12:00,,0830.8,4.99,0.00,29.2,27.4,00.0,38.2,30.9,19.7,0002.0,0048.59,0031.59,0028.89
2021-09-09 01:13:00,,0830.7,5.00,0.00,29.2,27.7,00.0,38.2,31.0,19.7,0002.2,0050.18,0031.66,0028.92
2021-09-09 01:14:00,,0830.7,5.01,0.00,29.3,28.0,00.0,38.2,31.1,19.6,0002.1,0050.89,0031.74,0028.96
2021-09-09 01:15:00,,0830.7,4.99,0.00,29.3,28.3,00.0,38.2,31.2,19.5,0001.9,0051.86,0031.80,0028.99
2021-09-09 01:16:00,,0830.7,5.01,0.00,29.4,28.5,00.0,38.2,31.3,19.5,0002.0,0052.61,0031.86,0028.99
2021-09-09 01:17:00,,0830.8,5.00,0.00,29.4,28.6,00.0,38.3,31.3,19.5,0002.1,0052.75,0031.83,0029.01
2021-09-09 01:18:00,,0830.7,4.99,0.00,29.4,27.5,00.0,38.3,31.1,19.5,0002.2,0053.47,0031.88,0029.03
2021-09-09 01:19:00,,0830.7,5.00,0.00,29.2,25.8,00.0,38.3,30.5,19.6,0002.1,0053.30,0031.93,0029.06
2021-09-09 01:20:00,,0830.7,5.00,0.00,29.1,25.6,00.0,38.3,30.5,19.8,0002.0,0053.10,0032.04,0029.08
2021-09-09 01:21:00,,0830.8,5.00,0.00,29.1,26.1,00.0,38.2,30.6,19.9,0001.9,0053.71,0032.12,0029.12
2021-09-09 01:22:00,,0830.8,4.99,0.00,29.0,26.5,00.0,38.2,30.7,19.9,0002.1,0056.96,0032.10,0029.13
2021-09-09 01:23:00,,0830.8,5.00,0.00,29.1,27.0,00.0,38.2,30.8,19.9,0002.1,0057.49,0032.10,0029.13
2021-09-09 01:24:00,,0830.8,5.00,0.00,29.1,27.4,00.0,38.2,30.9,19.9,0002.0,0056.07,0031.97,0029.08
2021-09-09 01:25:00,,0830.9,5.00,0.00,29.1,27.8,00.0,38.2,31.0,19.8,0002.1,0055.05,0031.79,0029.01
2021-09-09 01:26:00,,0830.9,5.00,0.00,29.2,28.0,00.0,38.2,31.1,19.7,0002.2,0054.31,0031.74,0029.00
2021-09-09 01:27:00,,0830.9,5.00,0.00,29.3,28.3,00.0,38.2,31.2,19.7,0002.1,0053.79,0031.76,0029.01
2021-09-09 01:28:00,,0830.9,5.00,0.00,29.3,28.5,00.0,38.2,31.2,19.7,0002.2,0054.07,0031.78,0029.02
2021-09-09 01:29:00,,0831.0,5.00,0.00,29.4,28.6,00.0,38.3,31.3,19.6,0002.3,0053.20,0031.77,0029.01
2021-09-09 01:30:00,,0830.9,5.01,0.00,29.4,28.8,00.0,38.3,31.4,19.6,0002.4,0052.80,0031.65,0028.96
2021-09-09 01:31:00,,0830.9,5.02,0.00,29.5,28.1,00.0,38.3,31.2,19.5,0002.4,0052.26,0031.53,0028.89
2021-09-09 01:32:00,,0830.9,5.00,0.00,29.3,26.1,00.0,38.3,30.7,19.7,0002.3,0051.04,0031.41,0028.83
2021-09-09 01:33:00,,0830.9,5.00,0.00,29.2,25.5,00.0,38.3,30.5,19.8,0002.1,0048.34,0031.32,0028.77
2021-09-09 01:34:00,,0830.9,5.00,0.00,29.1,25.8,00.0,38.3,30.5,19.9,0002.3,0048.78,0031.32,0028.75
2021-09-09 01:35:00,,0830.9,4.99,0.00,29.0,26.3,00.0,38.2,30.6,20.0,0002.2,0049.97,0031.36,0028.74
2021-09-09 01:36:00,,0830.9,5.01,0.00,29.1,26.8,00.0,38.2,30.7,20.0,0002.0,0050.10,0031.36,0028.70
2021-09-09 01:37:00,,0830.9,5.00,0.00,29.1,27.2,00.0,38.2,30.9,19.9,0002.2,0050.71,0031.31,0028.64
2021-09-09 01:38:00,,0830.9,5.00,0.00,29.1,27.6,00.0,38.2,31.0,19.9,0002.3,0049.99,0031.20,0028.61
2021-09-09 01:39:00,,0831.0,5.01,0.00,29.2,27.9,00.0,38.2,31.1,19.8,0002.1,0050.82,0031.14,0028.54
2021-09-09 01:40:00,,0830.9,4.99,0.00,29.2,28.2,00.0,38.2,31.1,19.7,0001.7,0051.74,0031.05,0028.50
2021-09-09 01:41:00,,0831.0,5.01,0.00,29.3,28.4,00.0,38.2,31.2,19.7,0001.3,0053.01,0031.08,0028.53
2021-09-09 01:42:00,,0830.9,5.00,0.00,29.4,28.5,00.0,38.3,31.3,19.6,0001.0,0052.37,0031.12,0028.60
2021-09-09 01:43:00,,0830.9,5.00,0.00,29.4,28.7,00.0,38.3,31.3,19.5,0000.9,0053.73,0031.18,0028.66
2021-09-09 01:44:00,,0830.9,5.00,0.00,29.5,28.8,00.0,38.3,31.4,19.4,0000.8,0054.49,0031.28,0028.74
2021-09-09 01:45:00,,0830.9,4.99,0.00,29.5,27.9,00.0,38.4,31.2,19.3,0000.5,0053.90,0031.36,0028.78
2021-09-09 01:46:00,,0830.9,5.01,0.00,29.3,25.9,00.0,38.3,30.6,19.5,0000.7,0053.38,0031.43,0028.84
2021-09-09 01:47:00,,0830.9,5.00,0.00,29.2,25.4,00.0,38.3,30.4,19.6,0000.7,0053.40,0031.55,0028.95
2021-09-09 01:48:00,,0830.9,5.00,0.00,29.1,25.8,00.0,38.3,30.5,19.7,0000.8,0052.66,0031.65,0029.04
2021-09-09 01:49:00,,0831.0,5.00,0.00,29.0,26.3,00.0,38.2,30.6,19.8,0001.0,0053.75,0031.79,0029.10
2021-09-09 01:50:00,,0831.0,5.00,0.00,29.0,26.8,00.0,38.2,30.7,19.8,0001.0,0053.21,0031.90,0029.22
2021-09-09 01:51:00,,0831.0,5.00,0.00,29.1,27.2,00.0,38.2,30.8,19.8,0001.3,0053.05,0032.04,0029.27
2021-09-09 01:52:00,,0831.0,5.00,0.00,29.1,27.6,00.0,38.2,30.9,19.7,0001.6,0052.86,0032.13,0029.28
2021-09-09 01:53:00,,0831.0,4.99,0.00,29.2,27.9,00.0,38.2,31.0,19.7,0001.8,0053.69,0032.14,0029.24
2021-09-09 01:54:00,,0831.0,5.01,0.00,29.2,28.1,00.0,38.2,31.1,19.5,0002.2,0053.37,0032.13,0029.22
2021-09-09 01:55:00,,0831.0,4.99,0.00,29.3,28.3,00.0,38.2,31.2,19.4,0002.3,0052.61,0032.15,0029.18
2021-09-09 01:56:00,,0831.0,5.00,0.00,29.3,28.5,00.0,38.3,31.2,19.4,0002.4,0052.11,0032.12,0029.17
2021-09-09 01:57:00,,0831.0,5.01,0.00,29.4,28.6,00.0,38.3,31.3,19.3,0002.4,0051.38,0032.04,0029.13
2021-09-09 01:58:00,,0831.0,5.00,0.00,29.4,28.7,00.0,38.3,31.3,19.3,0002.3,0052.24,0032.04,0029.09
2021-09-09 01:59:00,,0831.1,5.00,0.00,29.5,28.5,00.0,38.4,31.3,19.1,0002.4,0053.48,0032.08,0029.10
